This is the latest recevied weather packets stored in our database for station/object DH5WR-10. If no packets are shown the sender has not sent any weather packets the latest 1 day(s).
| Time | Temp. | Humidity | Pressure | Rain* | Wind** | Luminosity | Snow |
|---|---|---|---|---|---|---|---|
| 1777742543 | 22.22° C | 27% | 1018.6 hPa | - | - | - | - |
| 1777741643 | 22.22° C | 26% | 1018.7 hPa | - | - | - | - |
| 1777740743 | 22.22° C | 27% | 1018.7 hPa | - | - | - | - |
| 1777739843 | 22.22° C | 28% | 1018.8 hPa | - | - | - | - |
| 1777738943 | 22.78° C | 27% | 1019.1 hPa | - | - | - | - |
| 1777738042 | 22.78° C | 27% | 1019.2 hPa | - | - | - | - |
| 1777737142 | 22.78° C | 27% | 1019.3 hPa | - | - | - | - |
| 1777736242 | 23.33° C | 26% | 1019.4 hPa | - | - | - | - |
| 1777735342 | 23.33° C | 25% | 1019.5 hPa | - | - | - | - |
| 1777734442 | 23.33° C | 26% | 1019.7 hPa | - | - | - | - |
| 1777733542 | 23.33° C | 27% | 1019.9 hPa | - | - | - | - |
| 1777732642 | 23.33° C | 27% | 1020.1 hPa | - | - | - | - |
| 1777731741 | 23.33° C | 28% | 1020.2 hPa | - | - | - | - |
| 1777730841 | 24.44° C | 28% | 1020.4 hPa | - | - | - | - |
| 1777729941 | 23.33° C | 27% | 1020.5 hPa | - | - | - | - |
| 1777729041 | 22.78° C | 27% | 1020.7 hPa | - | - | - | - |
| 1777728141 | 24.44° C | 26% | 1020.8 hPa | - | - | - | - |
| 1777727241 | 23.89° C | 28% | 1021.1 hPa | - | - | - | - |
| 1777726341 | 23.89° C | 26% | 1021.3 hPa | - | - | - | - |
| 1777725440 | 24.44° C | 23% | 1021.5 hPa | - | - | - | - |
| 1777724540 | 23.89° C | 27% | 1021.7 hPa | - | - | - | - |
| 1777723640 | 24.44° C | 27% | 1021.9 hPa | - | - | - | - |
| 1777722740 | 22.78° C | 28% | 1022 hPa | - | - | - | - |
| 1777721840 | 24.44° C | 27% | 1022.2 hPa | - | - | - | - |
| 1777720940 | 23.89° C | 29% | 1022.4 hPa | - | - | - | - |
* Rain since midnight (hover to see other rain measurements)
** Current wind speed in m/s (hover to see current wind gust speed)